Theta_e
344 343 342 340 336 335 335 335 335 336 337 338 338 338 338 337 336 336 334 333 331 331 331 330 330 328 325 323 324 324 325 324 324 323 322 323 325 325 326 327 325 322 320 319 320 319 319 318 317 316 318 317 315 315 316 318 319 319 316 314 312 310 309 309 309 311 313 313 314 319 323 323 316 310 311 310 309 309 309 310 310 309 311 312 312
344 344 342 340 337 334 334 335 335 335 337 338 338 338 338 338 337 336 335 333 332 332 332 331 330 329 328 327 327 327 327 328 328 328 328 328 328 326 326 328 327 322 318 317 316 317 318 317 316 315 316 317 316 315 317 317 318 318 314 312 311 309 309 309 310 311 312 312 313 316 319 321 317 312 311 310 309 309 310 309 310 310 310 311 311
344 344 342 340 337 334 334 334 335 335 336 338 338 338 338 338 337 337 336 334 332 332 332 331 331 330 329 329 329 330 330 330 330 330 330 330 330 329 329 330 330 327 324 319 316 314 315 316 316 315 315 315 316 316 317 317 317 316 314 312 311 308 310 311 311 311 311 312 312 313 314 315 314 312 311 311 310 309 310 309 310 310 310 311 311
344 344 341 339 336 335 334 334 334 334 336 337 337 338 338 338 338 338 337 336 333 332 332 332 331 331 331 331 331 330 331 331 330 330 330 331 331 330 330 331 331 331 329 325 320 315 314 316 316 313 314 314 315 316 316 316 316 315 313 311 310 309 312 313 312 311 311 310 310 312 313 313 314 312 312 310 310 310 310 310 310 310 310 311 310
344 343 341 339 336 334 334 334 333 334 335 336 337 338 339 338 338 339 338 337 335 333 332 332 332 332 331 331 331 331 331 331 331 330 330 331 332 332 331 332 333 333 331 329 326 321 316 315 315 313 312 313 314 314 315 314 315 313 312 311 310 311 313 313 312 312 310 309 310 311 311 312 313 312 312 311 311 310 310 310 309 311 310 311 310
343 342 340 338 336 334 333 333 333 333 334 335 336 337 338 338 339 339 339 339 337 335 334 333 333 332 332 331 331 332 331 332 331 331 331 332 333 333 333 333 333 333 332 331 330 329 324 318 316 314 311 313 314 313 313 313 313 312 311 311 311 311 313 314 315 315 312 310 309 310 311 310 312 312 313 312 312 310 310 310 309 311 310 311 310
342 341 340 337 336 334 334 333 333 333 333 335 336 338 338 338 339 339 339 340 339 337 337 335 335 333 331 330 330 331 332 332 331 332 332 331 332 333 334 333 334 333 332 331 331 333 331 324 318 316 313 313 316 315 313 313 313 312 312 312 312 313 313 315 316 316 313 311 310 309 310 310 312 312 313 312 311 310 309 310 309 310 310 310 310
341 341 340 338 337 334 334 333 333 332 333 335 336 337 337 338 339 339 339 339 339 338 337 336 335 333 331 330 330 331 331 330 330 331 331 331 331 331 333 334 334 334 333 332 333 333 331 329 324 319 313 315 323 321 315 314 313 312 312 314 313 315 315 316 318 318 314 312 310 309 309 309 312 312 314 313 310 311 310 310 309 310 310 310 310
341 341 339 338 337 335 334 333 333 332 332 334 336 337 337 337 338 338 338 337 337 336 336 334 333 332 330 329 329 328 328 328 328 327 328 329 329 329 331 332 333 333 333 332 333 332 330 331 329 324 315 315 324 321 316 314 314 315 315 316 315 316 317 317 319 321 319 316 313 309 310 309 311 313 313 313 311 310 310 311 310 309 310 310 310
340 340 338 337 336 335 335 333 332 332 333 334 334 336 336 337 338 337 337 336 334 334 333 332 331 329 327 326 326 325 325 325 325 325 325 325 326 326 327 329 330 331 331 331 332 331 330 330 330 328 319 317 321 318 318 318 317 318 318 318 317 318 320 319 320 323 322 321 318 311 309 310 310 312 313 313 312 311 310 310 310 309 310 310 310
339 338 337 337 336 336 335 333 332 332 333 333 334 335 336 337 337 337 335 333 333 332 331 330 328 326 324 324 323 324 324 326 327 327 326 326 325 325 325 326 327 328 329 330 330 330 330 329 329 329 323 319 322 321 321 323 322 323 322 321 320 323 324 322 321 322 322 321 321 314 309 310 310 311 313 313 312 311 310 310 310 309 309 309 310
339 337 336 337 337 336 334 333 332 332 333 332 333 335 335 335 336 335 333 331 332 331 329 329 326 323 323 323 324 325 326 329 329 329 328 327 326 326 325 325 326 327 328 329 328 329 329 329 329 329 325 320 323 325 324 325 326 327 325 322 324 327 326 324 323 322 322 321 320 315 309 310 310 311 312 313 313 312 311 310 309 309 309 308 310
337 336 337 338 337 336 333 333 333 333 332 332 332 333 333 333 334 333 331 331 331 331 329 327 324 323 323 324 325 327 329 330 330 330 329 328 327 327 326 326 326 327 328 328 329 328 328 328 328 328 325 321 322 326 326 327 329 329 326 323 326 328 327 326 324 323 322 321 320 316 310 309 309 310 311 313 313 312 311 311 310 309 309 309 309
337 336 337 337 337 335 332 332 333 332 331 331 330 329 330 331 332 331 329 330 332 330 328 326 324 324 325 325 327 328 330 331 331 330 329 328 327 326 324 324 325 327 327 327 327 326 326 325 324 323 323 321 322 324 326 329 330 330 328 326 328 329 328 327 326 324 324 323 321 318 315 312 310 309 311 312 313 313 312 311 310 309 308 309 309
336 336 338 338 337 334 332 332 331 330 330 330 329 328 328 329 331 330 328 330 332 330 328 327 326 326 326 326 327 330 332 332 332 331 329 328 326 324 323 323 324 325 326 326 326 324 324 322 320 317 318 322 321 322 327 330 331 332 330 328 329 329 328 328 327 326 326 324 323 320 319 317 312 309 310 312 313 313 312 311 310 310 309 308 308
336 337 338 337 336 333 331 332 331 331 332 331 331 329 329 329 330 328 329 332 332 329 328 328 327 327 326 326 328 330 332 332 332 331 329 327 324 323 323 323 323 324 325 326 326 325 325 323 320 315 313 321 321 320 326 330 331 332 331 329 329 329 328 328 328 326 326 325 323 321 319 317 311 308 310 311 313 313 313 312 311 310 309 309 308
337 338 338 336 335 333 332 333 333 333 334 333 332 330 329 329 328 327 329 331 330 329 328 328 328 328 327 328 329 330 331 332 331 330 329 326 324 323 323 323 323 322 323 325 327 326 324 323 323 319 313 317 321 319 325 331 331 332 330 329 329 329 329 328 327 326 325 325 323 321 318 314 309 308 310 310 312 313 313 312 311 310 309 308 308
338 339 338 336 334 332 333 333 333 334 334 334 333 330 329 328 327 327 329 329 328 328 329 328 328 329 329 329 330 330 330 330 329 330 329 327 325 324 323 322 322 321 320 322 323 323 321 322 323 322 315 314 320 318 324 331 332 332 331 329 330 329 329 329 327 326 325 325 324 321 318 312 308 307 308 309 311 312 313 312 311 310 309 309 308
338 339 339 337 334 333 332 333 333 334 334 334 333 331 329 329 328 328 327 328 329 329 329 329 329 330 330 330 330 330 329 329 329 329 328 327 325 325 324 323 323 321 320 319 319 318 318 321 322 322 317 313 318 318 322 332 332 332 331 330 330 330 329 329 327 326 326 325 324 322 319 314 308 307 308 309 310 311 312 312 311 310 309 309 308
339 339 338 336 334 333 332 332 333 333 334 334 334 332 331 330 330 330 328 330 330 330 331 330 330 330 330 330 330 330 329 329 329 329 328 328 326 326 325 324 324 322 321 319 317 316 316 321 322 322 318 314 318 318 320 330 333 331 331 330 330 330 330 329 327 327 326 325 323 320 320 317 311 307 307 308 309 311 311 311 311 309 308 308 308
339 338 337 337 334 332 332 331 332 332 333 333 334 333 332 331 332 334 333 332 332 331 332 331 331 330 329 328 329 330 330 329 329 329 329 328 327 326 326 325 324 323 321 319 318 317 316 320 323 322 318 316 319 318 318 327 333 332 331 330 330 330 330 329 328 327 326 325 322 318 314 316 316 311 308 308 309 309 310 311 310 310 309 309 308
339 338 337 337 334 331 331 330 331 332 333 333 333 333 333 332 333 335 335 334 333 332 331 329 330 328 327 327 327 329 331 330 328 328 329 328 327 325 325 325 323 322 321 319 319 318 316 320 324 322 319 318 320 317 317 326 332 331 331 330 330 330 329 328 328 327 326 326 323 317 310 310 316 314 310 308 309 309 309 310 310 309 309 309 308
335 335 336 336 334 332 331 331 331 331 332 334 334 334 333 333 333 335 335 333 333 333 331 329 330 329 327 327 327 328 330 329 327 329 329 327 327 325 322 322 321 320 321 320 320 319 318 320 324 321 318 320 321 317 318 328 332 331 331 331 330 330 329 328 328 328 327 326 325 319 311 307 311 312 310 309 308 309 309 310 310 309 309 309 308
334 334 335 336 334 332 331 331 331 331 333 335 336 334 334 334 334 334 333 331 332 332 331 328 329 329 328 328 328 328 329 328 327 328 327 324 326 325 321 322 323 321 321 321 320 320 320 321 324 321 318 321 322 318 318 328 332 331 331 330 330 329 328 328 327 328 328 326 325 319 311 308 309 310 310 310 309 309 309 309 309 309 308 308 308
335 335 336 336 335 331 330 331 331 334 335 335 334 335 334 334 333 333 331 330 332 332 331 328 327 330 329 328 328 328 329 327 326 327 326 324 325 326 323 322 324 324 323 322 321 321 319 320 323 320 318 322 323 318 318 328 332 330 331 329 329 329 328 329 328 329 329 328 325 319 312 308 310 310 311 310 309 309 309 308 308 309 308 308 307
334 336 336 336 334 330 331 332 332 335 336 331 330 333 334 334 333 330 328 328 331 331 330 329 328 330 329 328 328 329 329 327 326 326 327 325 323 325 325 323 324 324 324 323 322 322 319 320 323 319 320 323 323 321 318 325 331 329 328 329 329 329 329 329 329 330 330 329 326 320 312 308 308 309 310 311 309 309 309 309 308 309 309 308 307
336 336 336 337 334 333 334 333 333 336 335 327 325 328 330 333 331 326 324 326 328 327 329 330 329 329 328 329 329 329 329 326 326 326 327 326 323 324 325 325 324 323 325 325 325 324 321 322 322 320 323 324 324 323 319 323 330 328 327 329 329 328 329 330 330 331 331 329 325 321 316 311 308 308 308 309 309 309 309 309 308 309 309 308 308
338 337 336 336 335 335 334 334 334 334 332 326 325 327 327 329 328 324 323 326 327 326 329 332 331 330 328 329 329 329 328 325 324 326 327 326 324 325 325 325 325 325 325 326 326 323 322 324 323 322 326 326 325 325 323 324 328 328 328 330 329 328 329 330 330 330 331 329 325 324 321 315 310 308 308 307 308 309 309 309 309 308 307 307 307
338 338 335 332 332 333 334 335 334 333 332 327 325 328 327 326 326 324 324 326 328 329 330 332 331 331 328 327 328 329 328 325 323 325 327 324 323 324 324 325 326 326 326 325 325 324 324 324 322 323 327 328 327 327 326 327 327 328 329 329 329 330 330 329 330 330 331 330 328 327 324 318 313 310 308 306 307 307 307 308 308 308 307 307 306
339 338 333 330 333 334 334 335 334 333 331 326 327 330 329 327 326 326 326 328 330 330 331 332 332 331 330 329 328 329 330 326 323 324 324 323 323 324 324 326 328 326 327 326 326 326 325 323 320 323 327 328 327 329 328 328 328 328 329 328 328 330 330 330 331 332 332 331 329 328 325 321 318 315 313 311 308 306 306 306 306 307 306 306 306
339 337 334 333 334 334 335 335 334 333 331 330 330 330 331 329 326 325 325 327 329 329 329 330 331 332 331 331 329 329 330 327 323 324 323 323 325 325 325 326 327 327 327 328 328 328 326 323 321 324 327 327 327 328 329 329 327 327 327 328 328 328 329 330 331 332 332 331 330 328 326 324 322 320 319 317 314 312 308 307 306 306 305 305 305
337 334 336 338 335 334 335 334 334 334 335 334 330 328 330 331 330 329 327 327 329 328 328 329 328 331 330 329 328 328 329 325 322 324 325 324 325 327 326 325 327 327 328 328 328 329 328 325 323 325 327 326 327 327 328 328 328 326 327 329 329 328 328 329 330 332 331 331 331 329 327 325 323 322 321 321 320 319 316 311 308 307 306 306 306
333 330 333 338 339 337 334 335 337 338 338 335 333 332 332 332 333 333 331 329 329 327 328 329 329 329 328 327 327 327 329 326 322 325 326 324 326 328 326 326 327 328 329 328 328 329 329 328 326 326 326 326 327 328 328 328 328 327 326 328 329 328 327 328 328 330 331 331 331 329 328 326 325 324 323 323 322 323 322 320 315 311 308 308 308
329 328 329 332 338 340 336 336 338 337 336 335 334 334 331 332 333 332 331 329 329 328 328 329 328 328 328 327 327 326 328 327 322 324 326 325 327 328 326 326 326 328 328 328 328 328 329 330 329 327 327 326 327 329 329 327 327 327 326 326 327 327 327 327 328 328 329 330 331 330 329 328 327 326 325 324 323 322 324 325 324 321 316 312 311
328 330 328 327 332 339 335 332 333 332 334 333 332 332 330 331 331 330 329 328 328 327 327 327 327 327 328 329 328 327 327 326 323 324 325 326 328 328 327 326 326 327 328 327 327 328 328 329 330 329 328 328 328 329 329 328 327 327 326 326 326 326 325 326 327 327 327 327 329 330 329 329 328 327 326 325 324 323 324 325 326 326 325 322 318
327 328 326 323 329 336 334 330 331 330 329 329 327 328 329 330 330 329 328 327 326 326 326 327 326 326 327 329 329 328 327 325 323 325 327 327 328 327 327 328 327 328 328 328 327 327 328 328 329 330 329 329 329 328 328 328 328 328 327 326 325 325 326 327 326 326 326 326 327 329 329 328 327 327 327 326 325 325 326 326 325 326 327 326 325
329 327 325 325 331 335 333 330 330 325 322 323 324 327 329 330 329 328 326 326 326 325 326 328 328 328 326 328 330 329 327 324 324 327 327 327 328 325 325 328 329 329 329 328 328 328 328 328 328 329 328 328 328 329 328 327 327 327 328 327 326 325 325 326 327 327 326 326 327 327 328 328 327 327 327 326 325 325 326 327 326 326 326 325 325
332 329 329 331 332 332 329 325 322 319 319 321 325 329 331 329 327 325 324 325 325 325 326 328 329 329 326 327 329 330 327 323 324 326 325 327 329 325 323 326 327 328 329 328 328 328 328 329 328 327 327 327 328 328 327 326 326 327 327 328 327 325 325 326 327 327 327 327 327 327 328 328 328 328 327 326 326 325 325 326 327 327 326 324 325
332 332 334 334 333 328 325 322 318 318 320 321 323 325 326 326 323 323 323 324 324 324 326 327 328 328 326 325 327 328 325 323 323 324 322 325 329 328 326 327 327 328 328 327 327 328 329 329 328 327 326 327 327 326 326 325 325 326 327 327 326 325 324 325 325 324 324 326 327 327 327 327 328 328 328 327 327 326 325 325 327 327 327 326 326
333 335 336 335 334 327 323 324 319 319 320 320 319 318 319 321 321 322 323 324 322 322 323 323 326 328 326 324 324 324 323 322 322 322 322 326 329 329 328 328 328 328 327 326 327 328 329 329 328 327 327 327 327 326 326 324 323 325 326 324 324 323 322 324 325 323 322 324 325 325 325 326 326 327 327 328 328 327 326 326 327 327 326 326 327
335 336 335 335 333 325 319 321 318 319 319 317 316 315 316 320 322 323 322 322 321 320 320 318 323 328 326 325 325 324 324 323 323 324 325 327 328 328 327 327 326 326 326 326 328 328 328 328 328 328 327 327 327 327 326 324 322 323 324 323 323 323 323 324 324 323 322 322 322 322 322 322 323 324 325 326 327 327 327 327 327 328 327 327 328
336 336 335 335 333 323 316 317 317 318 318 316 315 316 318 320 321 322 322 321 321 320 318 314 318 325 325 325 326 326 325 325 324 325 326 326 325 325 325 325 324 324 324 324 326 326 327 327 327 327 328 327 327 327 325 323 323 323 324 324 325 324 324 323 323 322 321 320 319 319 319 319 320 322 324 325 326 326 327 327 327 327 328 328 328
336 336 335 335 332 321 314 316 317 317 316 316 317 317 320 320 320 321 321 321 322 322 318 314 316 323 326 325 326 327 326 326 325 326 325 324 323 323 323 322 321 321 322 321 323 325 326 327 327 327 328 327 327 326 325 324 323 325 325 325 326 325 324 324 323 322 320 318 318 317 318 318 319 320 322 325 325 326 326 327 326 326 327 327 327
335 335 334 333 329 319 315 316 316 316 316 318 319 319 320 321 321 321 321 321 321 322 320 318 320 322 323 324 325 325 323 322 322 323 323 322 322 321 321 320 320 320 322 322 323 324 326 327 327 327 327 328 328 327 326 325 324 326 327 326 325 324 323 324 324 323 321 319 318 317 317 317 318 319 320 323 324 324 325 325 325 326 326 326 326
335 335 333 331 325 318 316 316 316 316 318 319 320 321 320 321 322 321 321 321 321 321 319 320 322 322 322 323 323 322 318 315 315 316 317 319 320 319 319 319 318 320 322 323 323 324 325 325 326 327 327 327 327 327 327 325 326 327 326 325 325 324 324 324 323 323 321 320 319 319 318 317 317 319 320 321 321 322 323 323 323 323 323 324 325
335 333 331 330 325 317 316 316 316 316 318 320 320 320 321 321 321 320 319 319 320 321 316 314 318 320 320 321 319 318 316 314 315 316 317 319 320 320 319 318 318 319 320 321 322 322 322 324 325 326 326 326 326 326 326 326 325 326 325 325 324 324 324 323 322 321 321 320 320 320 319 318 317 317 318 319 319 320 321 321 321 321 321 322 323
333 333 331 330 324 317 316 316 315 317 317 319 321 321 322 321 320 319 318 317 319 317 311 308 310 312 314 315 314 315 315 316 317 319 320 320 320 319 318 317 318 320 320 320 320 320 321 322 324 324 324 325 325 325 325 325 324 324 324 323 322 322 323 322 320 319 319 319 320 320 320 320 320 320 319 319 319 319 320 320 320 321 321 320 320
332 331 330 328 323 317 317 316 316 318 317 317 320 322 322 321 321 320 319 319 319 314 307 307 307 307 308 310 313 315 316 316 317 319 319 319 319 319 317 317 319 321 320 319 319 319 321 322 322 322 322 322 322 322 322 323 323 323 323 323 322 322 321 319 319 318 319 319 320 319 318 318 318 318 319 320 320 320 320 319 320 321 322 320 320
332 330 329 328 324 319 318 318 318 320 317 315 318 321 322 321 320 320 320 320 318 311 307 308 307 306 306 307 311 313 314 315 316 317 318 319 318 317 317 317 319 320 319 319 318 317 320 322 322 321 321 320 320 320 320 321 322 323 323 323 321 320 319 318 318 319 320 318 315 312 309 309 311 312 313 315 317 318 318 317 318 319 320 320 320
331 330 329 328 326 323 322 319 319 321 319 316 317 319 321 321 320 319 320 319 315 308 307 308 307 307 306 306 308 311 312 313 314 316 317 317 317 315 315 315 317 318 317 318 317 316 318 320 321 320 320 320 319 319 321 321 321 321 321 320 319 318 317 318 319 320 319 314 309 306 305 306 309 313 314 313 314 315 315 316 317 318 318 320 320
330 330 330 329 328 327 325 322 322 325 322 316 314 318 320 321 320 318 317 317 312 308 308 308 307 307 306 305 306 307 309 311 313 315 315 315 314 313 313 313 314 315 314 315 316 317 318 318 319 319 319 319 317 318 320 320 319 319 318 317 315 313 312 314 316 318 314 309 306 305 305 306 307 313 317 316 316 317 317 317 318 318 319 320 320
Wind_Speed
29 28 26 26 26 25 23 23 21 21 21 21 21 19 19 19 19 19 19 18 18 19 19 18 17 17 16 16 16 16 15 15 14 13 13 13 13 12 11 11 11 10 10 9 8 8 9 9 8 9 9 10 11 12 11 10 10 10 9 8 8 9 10 12 12 13 15 15 16 18 17 16 16 17 17 17 18 19 20 19 19 18 18 18 18
30 29 27 27 26 25 24 23 22 20 21 21 21 20 19 19 19 19 19 19 18 19 19 18 18 17 16 16 16 15 15 14 14 14 14 13 13 12 12 11 11 10 9 8 8 8 8 8 8 8 9 10 11 11 11 10 10 9 8 8 8 9 11 12 13 15 15 14 15 17 17 15 15 16 16 17 17 18 18 18 18 18 18 18 18
30 29 27 27 27 25 24 23 22 20 20 21 21 20 20 19 19 19 19 19 18 19 19 19 18 17 16 16 15 14 14 14 14 14 14 14 13 12 12 11 10 9 7 6 7 8 8 8 8 8 9 10 10 11 11 10 10 9 9 8 8 10 12 13 13 14 14 14 15 16 16 16 16 15 16 16 15 16 17 17 17 18 18 17 17
29 29 27 27 26 25 24 23 22 21 20 21 21 21 20 19 18 18 19 19 19 19 19 19 18 17 16 15 14 13 13 13 13 13 13 13 12 12 11 11 9 8 6 6 6 6 7 8 8 8 9 10 10 11 11 10 10 10 9 9 10 11 13 13 14 14 13 14 15 15 15 15 15 15 15 15 15 15 15 16 17 17 17 17 16
29 28 27 27 27 25 25 23 22 21 21 21 21 21 20 19 18 18 18 18 19 19 18 17 16 15 15 15 14 13 12 12 12 12 12 12 12 11 11 10 10 9 7 6 5 5 6 7 9 9 9 10 10 10 10 11 10 10 9 10 11 12 12 13 14 14 13 14 14 14 14 15 14 14 13 13 14 14 15 16 16 16 16 17 16
29 28 28 28 27 26 25 23 22 21 21 21 21 21 20 19 18 17 18 18 18 18 17 16 15 14 13 13 13 12 11 11 11 11 10 11 10 10 10 10 9 9 8 7 6 6 6 6 9 9 9 10 11 11 11 11 11 11 10 11 12 12 12 12 13 13 14 14 14 14 14 13 13 13 13 13 14 14 15 16 16 16 16 17 17
29 29 28 28 27 26 25 24 23 21 21 21 21 21 20 19 17 17 17 17 17 17 16 15 14 13 12 12 12 11 11 10 10 9 9 8 9 9 10 10 9 8 8 8 8 7 7 7 9 8 8 10 11 11 12 12 12 12 12 11 11 12 12 12 13 13 14 15 14 13 13 12 11 11 12 13 13 14 14 14 15 15 15 16 16
29 28 27 27 26 26 25 23 22 21 21 20 21 21 20 18 17 16 16 16 16 15 14 14 13 13 12 12 11 11 10 10 9 9 8 7 7 7 8 9 9 8 7 8 8 8 7 6 8 7 7 9 11 12 12 13 13 13 12 11 10 12 13 13 13 13 14 15 14 13 12 10 10 10 11 12 13 13 12 13 14 14 14 15 16
29 27 26 26 26 26 24 23 22 21 20 20 20 20 20 18 17 16 15 15 15 15 14 13 13 13 13 12 11 11 10 10 9 9 8 7 6 5 5 6 7 7 7 8 7 6 7 5 5 6 6 8 11 12 13 13 13 12 12 11 10 10 13 13 12 13 13 15 14 13 11 9 9 9 10 11 12 12 11 11 12 14 14 14 15
30 28 27 26 27 26 24 22 21 20 20 19 19 19 19 19 18 16 15 15 15 14 14 14 14 14 14 14 13 12 12 11 10 10 9 8 6 5 5 4 5 6 5 6 6 4 5 3 2 4 5 7 11 13 14 13 12 12 11 10 10 8 12 14 12 12 11 13 13 12 11 8 7 7 8 9 10 10 10 10 11 13 14 14 15
30 29 27 27 27 26 24 22 21 20 19 19 19 19 19 19 18 16 15 14 15 14 14 14 15 16 16 16 15 14 14 13 12 12 11 10 8 7 6 5 5 4 4 4 5 4 4 3 1 3 5 6 12 14 14 14 13 11 10 10 8 7 11 12 10 9 9 11 12 11 10 8 6 6 6 7 9 9 9 9 9 11 12 13 14
31 29 28 28 27 25 24 22 22 20 19 18 18 19 19 19 18 16 15 14 14 14 14 15 16 17 18 17 16 15 14 13 12 12 11 11 10 9 7 6 5 4 4 5 5 5 5 4 2 3 4 4 11 14 15 14 13 12 11 10 8 8 10 10 9 8 8 9 10 10 10 8 5 4 5 5 7 8 9 8 8 10 11 12 14
30 29 28 28 26 25 24 22 21 20 19 18 18 19 19 19 18 17 15 15 14 14 14 15 16 17 17 16 15 14 13 12 11 10 10 10 9 8 8 7 6 5 5 5 5 5 5 4 3 3 3 4 10 14 15 15 13 12 11 10 8 9 9 10 9 7 6 7 8 9 9 7 5 3 3 4 5 7 8 8 8 8 9 11 13
29 29 28 27 26 24 23 22 21 20 19 19 19 19 20 19 18 17 16 15 15 14 14 15 16 16 16 15 13 12 11 10 9 9 9 9 8 7 7 7 7 6 6 6 6 5 4 3 3 3 3 5 9 14 15 16 14 12 12 10 9 9 9 9 8 7 6 6 7 7 6 6 5 3 3 2 3 5 7 8 7 7 8 10 11
28 29 28 27 26 24 23 22 21 21 20 20 20 20 20 20 19 17 17 16 15 14 14 14 14 14 15 14 12 10 9 8 7 7 7 7 6 6 6 6 6 7 6 6 6 5 3 2 2 3 4 6 9 14 16 16 15 12 11 10 10 9 8 8 7 7 6 6 6 6 4 4 5 3 3 2 1 3 5 6 7 7 8 9 10
27 27 27 27 26 25 23 22 22 22 21 21 21 20 20 20 20 19 18 16 15 14 14 14 13 13 13 12 10 9 7 6 6 6 6 5 5 5 4 4 5 5 5 6 6 4 3 2 2 3 5 8 9 14 17 17 15 13 11 10 10 9 8 7 7 6 6 7 7 5 4 4 5 5 3 2 1 1 3 5 6 7 7 8 9
26 26 27 26 26 26 23 22 22 22 22 21 21 20 21 21 20 19 18 16 15 14 14 13 12 12 11 10 9 8 6 5 5 5 4 4 4 3 3 4 4 4 4 5 5 4 2 1 2 3 6 9 10 14 19 18 16 14 12 11 9 8 8 7 6 6 7 7 7 6 4 4 6 6 5 4 2 2 1 3 5 6 6 6 7
26 26 26 26 26 26 23 23 23 23 22 22 22 21 21 21 20 19 18 17 16 15 14 13 12 12 11 10 9 7 6 5 4 3 3 2 2 2 2 3 3 3 3 4 4 3 3 2 2 3 6 9 11 15 20 20 17 15 13 12 8 7 7 6 6 6 7 7 7 6 4 3 6 6 5 5 3 3 2 2 3 5 6 6 7
25 26 26 26 26 25 24 23 24 24 23 23 22 21 21 20 20 18 18 17 16 15 14 14 14 13 12 11 10 8 7 6 4 3 1 1 1 1 1 1 2 2 3 3 3 3 3 3 3 3 6 9 12 15 22 22 18 16 14 12 9 7 7 6 6 7 7 8 8 7 4 3 5 6 5 5 4 3 3 2 2 4 5 6 6
25 26 27 27 26 25 25 24 25 24 24 24 23 22 20 20 19 18 18 17 16 15 14 14 13 12 12 11 10 10 9 7 5 3 2 1 1 1 1 1 2 2 3 3 2 3 3 4 4 3 5 9 12 15 22 23 18 16 13 12 9 8 7 6 7 8 8 8 8 7 5 3 4 6 6 6 5 4 3 2 2 3 4 5 5
26 28 27 27 26 26 26 25 26 25 24 24 23 22 20 20 20 18 18 16 15 14 12 10 9 9 9 8 8 9 8 8 6 4 3 3 2 2 3 3 3 3 3 3 3 3 4 4 4 4 6 10 13 15 21 24 19 15 13 11 9 8 6 6 8 9 9 8 8 6 5 3 3 5 6 6 6 4 3 3 2 2 3 4 3
27 29 27 27 27 26 26 25 25 24 24 23 22 22 20 19 19 17 15 14 13 12 9 6 6 8 8 8 7 6 7 8 6 5 4 3 4 3 4 3 3 4 4 3 3 3 4 5 5 5 7 11 13 15 21 24 20 16 12 10 9 7 6 7 8 9 7 7 7 6 4 2 3 4 6 7 6 5 4 3 3 2 2 3 3
26 27 27 28 27 26 25 23 24 23 22 21 22 21 18 18 17 15 13 12 11 10 8 6 7 7 7 8 7 6 7 7 6 5 4 4 6 5 5 4 4 5 5 4 3 4 5 6 6 6 9 12 13 14 21 24 20 15 12 10 8 6 6 7 7 8 7 6 6 5 4 3 4 5 5 7 6 5 4 4 3 2 2 2 2
23 24 26 27 26 26 24 23 23 22 21 20 20 19 17 16 14 13 12 12 10 8 8 7 7 6 6 7 8 6 6 6 6 6 5 6 8 6 6 6 7 7 6 6 4 4 5 7 7 8 10 12 12 13 20 24 20 15 11 9 7 6 7 8 7 7 6 5 6 5 4 3 4 5 6 7 7 6 4 4 4 3 2 1 2
23 25 27 27 26 25 23 22 21 21 21 18 17 17 16 15 13 12 12 11 9 8 8 8 7 6 6 6 8 7 6 7 6 6 6 7 9 8 8 8 9 8 8 6 5 5 5 7 7 10 12 13 12 12 19 23 19 15 11 9 8 7 7 7 7 7 5 5 6 4 3 4 4 5 6 7 8 7 5 5 5 3 3 2 2
26 28 28 27 25 24 21 20 20 21 19 16 16 17 14 13 12 12 11 11 10 9 8 8 6 7 7 6 7 8 7 8 6 6 5 7 10 10 9 9 10 9 8 7 5 5 5 6 8 11 13 13 13 12 17 23 20 14 11 9 8 8 7 7 7 7 4 4 5 4 4 5 5 6 6 6 7 8 6 6 6 4 3 3 2
28 28 28 24 22 21 20 21 21 21 18 15 15 16 15 14 12 11 10 10 9 9 8 8 7 6 7 6 6 7 8 9 8 7 7 8 10 10 9 9 10 9 8 7 5 6 6 7 9 13 14 13 13 13 16 21 20 13 9 9 8 8 7 7 7 7 4 4 4 4 5 6 5 6 6 5 5 7 7 6 6 5 4 3 3
27 26 24 21 22 23 22 22 22 20 18 16 15 14 15 13 12 11 9 9 9 8 8 8 7 6 6 7 6 7 8 8 8 8 9 9 9 10 9 10 10 10 9 8 7 7 8 8 11 14 13 12 13 14 16 19 18 14 11 10 9 9 8 7 7 6 4 4 4 4 5 6 6 6 6 5 4 5 6 6 6 6 5 4 4
26 25 24 24 25 25 23 22 21 19 17 15 14 13 13 11 11 11 9 9 8 8 8 7 7 7 8 8 7 8 8 9 9 9 10 10 10 10 10 9 9 9 9 9 9 9 9 9 12 15 12 11 12 13 16 17 16 14 11 9 8 9 8 8 8 7 6 5 5 5 6 6 6 6 6 5 4 4 3 4 5 6 6 6 6
24 25 26 26 25 25 24 22 19 16 14 12 12 14 13 10 10 10 10 9 8 8 9 9 9 10 11 10 9 10 10 10 10 10 10 9 10 10 9 9 9 10 9 9 9 9 9 10 13 15 12 11 11 12 14 14 13 12 11 9 8 9 8 7 9 10 9 7 6 6 6 7 6 5 5 4 4 4 3 2 3 4 6 7 8
18 24 25 24 23 24 23 20 18 16 15 14 12 12 12 10 8 8 9 8 8 7 7 9 10 11 12 12 11 11 12 11 11 11 10 9 10 9 8 9 10 10 10 9 10 9 10 11 14 15 13 11 12 13 13 12 11 10 9 8 8 8 7 6 7 8 10 10 7 6 7 7 6 5 3 2 2 3 3 2 1 2 3 5 7
12 19 22 22 21 21 20 18 17 17 18 17 14 12 10 10 9 9 7 7 7 5 5 7 9 11 13 13 13 12 13 12 12 13 12 11 11 9 10 11 11 11 11 11 11 11 11 13 15 14 13 12 11 12 11 10 10 9 8 8 8 7 6 6 5 6 8 10 10 8 7 7 7 6 4 3 3 2 2 2 1 0 2 3 4
12 13 15 20 21 19 17 15 16 17 16 14 13 11 10 10 10 8 6 6 6 5 6 7 8 10 12 13 13 13 13 13 13 14 14 13 12 11 10 11 13 13 13 13 12 12 11 13 15 15 15 14 11 10 10 10 10 10 9 9 9 8 8 7 5 5 7 9 11 11 9 6 6 6 6 5 4 3 2 2 1 0 2 2 2
14 14 12 15 18 18 16 15 16 14 12 10 9 9 8 8 7 6 5 4 4 5 7 8 8 9 11 13 14 14 15 14 13 15 15 13 12 11 10 12 14 14 13 13 12 12 12 12 14 15 15 15 13 11 11 12 12 12 12 11 11 10 11 10 8 7 6 8 10 10 10 7 5 5 5 5 3 2 2 2 2 1 1 2 3
16 17 15 12 13 16 14 14 16 14 11 9 7 7 6 5 5 5 4 3 4 6 8 10 10 9 10 12 13 14 15 15 14 16 16 13 11 11 11 12 13 12 12 12 11 11 12 12 13 14 14 13 13 12 13 14 13 13 13 13 13 12 12 12 11 9 8 9 8 8 9 7 6 6 5 4 2 1 1 1 1 1 1 1 2
19 18 17 14 13 14 13 15 16 14 12 10 8 7 5 4 3 2 1 1 2 5 6 8 9 9 10 11 12 13 15 16 16 16 15 13 11 11 12 12 12 11 11 11 11 11 11 12 11 12 12 12 12 12 13 13 13 12 13 14 14 13 12 12 12 12 11 9 8 7 7 7 7 8 7 6 4 3 2 2 2 2 2 2 2
20 19 16 16 16 16 15 15 14 12 10 8 6 5 4 3 2 1 1 1 2 2 4 6 7 9 11 11 11 12 14 15 15 15 13 12 12 12 13 12 11 11 12 12 11 11 12 11 11 11 11 11 12 12 12 11 11 12 13 14 14 15 15 14 12 12 12 11 9 9 8 8 10 10 10 9 7 6 5 4 4 3 4 4 4
20 20 17 16 16 16 15 14 13 11 9 7 6 6 5 4 3 2 2 1 2 1 2 4 6 8 10 10 10 11 13 13 13 14 13 12 13 12 12 12 11 11 11 11 11 12 12 12 11 11 10 11 12 12 11 11 11 12 13 13 13 14 16 17 16 13 12 12 11 10 10 11 12 12 12 12 11 11 9 8 7 6 6 6 6
21 21 19 18 16 14 14 13 13 11 10 8 7 7 6 6 5 4 3 2 1 2 1 2 4 7 8 9 9 11 12 12 12 13 13 14 15 13 12 13 12 11 9 9 10 11 11 12 12 12 11 11 12 12 12 12 12 12 12 11 11 12 13 13 14 12 8 10 12 12 12 12 13 13 13 14 14 14 13 12 11 10 9 8 8
24 24 23 21 17 14 14 14 13 13 12 10 8 7 7 7 6 5 4 3 1 1 1 1 2 6 8 9 9 10 10 9 10 12 13 14 13 11 10 10 10 9 8 9 11 12 12 13 13 13 12 12 13 14 14 13 13 13 13 12 11 12 11 10 10 10 7 6 9 10 10 11 12 13 14 15 15 16 16 15 15 13 12 11 11
27 26 25 23 18 15 16 16 16 15 13 11 10 8 8 8 9 8 6 4 1 1 1 0 3 6 8 9 10 10 9 9 10 12 12 12 10 8 7 8 8 8 9 10 11 13 13 13 14 14 13 13 14 15 15 14 12 13 12 10 8 7 8 9 9 9 7 6 6 7 9 11 12 13 14 15 17 18 18 17 18 18 17 16 15
30 30 27 24 19 17 19 20 20 17 14 12 12 10 9 8 9 9 7 4 2 1 3 1 3 6 7 8 10 10 10 10 11 11 12 10 8 7 7 7 7 7 8 9 10 11 12 12 13 13 14 14 14 14 14 13 12 12 10 8 6 5 7 8 8 6 5 4 4 5 8 10 13 13 13 13 15 16 17 19 20 20 20 19 16
32 32 28 24 20 19 22 23 21 18 15 14 13 12 10 9 7 7 6 4 2 2 2 2 3 7 7 8 8 9 10 10 10 10 10 8 6 5 6 5 5 5 6 7 9 10 11 11 11 11 12 13 13 13 13 13 13 12 10 7 6 5 6 5 4 3 2 2 3 4 5 7 10 12 12 12 13 13 15 17 20 20 20 18 14
34 33 29 24 20 22 25 24 22 19 16 16 15 13 12 11 8 7 6 3 3 3 1 2 5 7 7 7 7 7 8 8 8 9 8 6 5 5 5 5 5 5 5 6 7 8 9 9 9 9 9 10 11 11 11 12 13 11 9 7 6 5 4 2 2 2 2 2 3 4 5 5 5 8 9 10 12 13 13 14 15 17 16 15 14
35 32 28 23 20 24 26 24 22 19 17 17 18 15 13 12 10 9 8 5 4 4 4 6 9 9 9 8 8 8 8 8 8 7 6 6 6 5 4 4 4 5 5 5 5 5 6 8 8 8 9 9 9 10 11 11 12 12 10 6 3 2 1 1 2 2 2 3 4 4 4 4 3 3 5 7 9 12 13 13 14 14 13 13 16
33 30 26 21 20 25 27 25 22 21 19 18 19 17 14 12 10 8 7 6 6 4 3 6 9 10 10 10 10 9 8 8 7 6 6 6 6 5 3 2 3 4 4 4 4 4 4 6 7 8 8 8 8 9 10 10 11 12 9 4 3 2 2 3 3 3 4 5 5 6 6 4 3 2 3 5 6 7 10 11 12 11 10 11 13
32 29 25 21 20 25 28 26 24 22 21 19 18 18 16 14 10 6 4 5 5 5 4 5 7 8 9 9 9 9 8 7 7 7 7 8 6 5 3 1 2 3 3 4 4 3 3 3 4 5 5 5 5 5 6 6 7 8 5 3 5 5 6 7 7 7 6 5 5 7 6 5 4 4 4 4 4 5 7 9 10 10 9 9 11
32 30 27 24 23 25 27 27 26 24 23 21 18 18 18 15 12 10 8 6 6 5 7 7 6 6 7 8 9 10 10 9 8 6 6 7 6 4 3 2 3 3 3 4 3 2 2 2 2 2 1 1 2 3 3 3 4 4 3 4 5 6 7 8 7 6 5 4 5 6 5 4 5 6 6 6 5 6 6 8 9 10 10 10 10
33 31 29 27 25 26 27 28 28 26 25 24 19 18 18 15 12 11 11 9 8 6 9 8 6 5 5 7 8 9 10 9 8 7 6 5 4 2 2 3 5 4 4 3 3 3 4 4 4 5 5 3 1 1 1 1 2 2 1 3 3 3 4 4 4 3 3 5 7 9 9 7 6 5 6 6 6 6 7 8 9 9 9 9 9
34 32 31 30 28 28 30 30 30 28 27 25 22 19 19 17 14 12 12 12 9 9 10 9 6 6 5 6 8 8 8 8 8 8 7 5 3 1 2 3 4 4 2 1 2 3 4 5 5 6 7 6 5 4 4 3 3 2 2 2 1 2 3 4 4 3 4 8 10 11 11 10 10 8 6 5 4 4 5 6 6 5 6 6 6
33 33 33 32 31 31 33 33 31 30 28 27 24 20 19 18 15 12 13 12 10 11 11 8 7 6 6 7 7 8 7 7 9 9 7 5 3 2 3 3 2 2 2 1 1 2 2 3 3 3 3 4 6 6 6 6 6 5 4 2 1 2 2 3 3 4 7 10 10 10 10 9 9 7 6 6 6 4 2 1 1 2 2 3 4
Wind_Direction
175 171 169 167 165 169 170 168 166 166 162 160 158 156 153 148 144 142 143 142 140 140 139 137 135 135 134 131 128 126 126 127 127 126 122 118 115 118 123 130 137 135 135 136 137 137 135 132 128 133 145 153 150 144 138 132 131 133 127 116 111 110 111 109 100 88 82 78 78 82 84 83 81 78 78 77 77 79 79 77 75 74 74 73 72
171 169 169 166 165 168 170 169 168 168 165 163 160 159 157 154 149 145 144 144 143 140 138 136 134 134 135 134 134 134 134 134 133 130 125 122 118 116 118 121 128 129 127 126 133 137 135 132 128 131 140 150 151 147 142 140 140 140 133 123 117 111 111 109 103 95 87 79 74 78 81 80 79 79 80 79 77 79 80 79 76 73 72 71 70
167 168 168 165 165 167 170 169 169 170 168 165 162 162 160 158 154 148 144 143 144 141 139 136 134 135 137 138 138 138 137 135 131 129 126 124 121 118 116 116 119 121 121 119 124 135 139 134 129 132 138 146 148 149 148 149 147 148 143 132 124 113 112 110 107 102 93 82 73 72 74 74 75 76 78 80 79 81 81 81 79 75 73 70 69
167 166 166 163 164 167 170 169 170 172 170 168 166 165 162 162 157 151 146 144 144 143 140 136 135 135 137 138 137 137 133 131 128 127 125 124 122 118 116 115 114 110 108 112 108 119 136 136 132 131 136 142 146 152 151 152 154 155 151 142 135 124 118 113 107 102 95 86 75 68 66 67 70 72 74 79 80 82 84 83 81 78 76 73 69
166 164 165 162 164 167 169 169 172 174 173 171 169 167 164 163 159 154 147 143 144 143 141 138 136 133 134 135 135 136 133 131 129 126 124 124 122 120 120 118 118 112 102 107 99 86 107 127 129 128 137 141 144 151 150 153 156 157 155 150 145 135 126 115 106 100 94 88 80 72 65 61 62 67 71 75 79 78 81 83 83 81 78 75 70
165 164 166 163 164 167 169 170 173 175 176 174 171 169 165 164 160 156 149 144 144 143 143 142 141 137 136 134 134 135 134 131 128 127 125 124 122 122 123 122 120 118 110 106 103 78 75 99 114 119 131 140 143 148 149 151 153 154 155 157 151 141 134 122 109 100 94 91 86 79 70 61 57 61 65 69 75 75 76 80 83 83 79 76 72
165 165 166 163 164 166 169 172 174 176 176 174 171 169 166 165 161 157 151 146 145 146 146 147 146 144 142 138 137 135 135 132 129 128 127 127 123 123 121 123 123 118 115 110 112 101 88 86 93 104 120 137 139 143 148 149 153 155 158 164 157 146 140 130 116 104 97 94 90 83 76 67 59 60 64 64 70 72 73 78 81 82 80 78 75
165 165 166 163 163 166 170 174 174 176 176 174 172 169 168 165 163 160 154 149 146 146 146 147 148 147 147 144 142 140 139 135 133 131 131 134 126 126 124 124 125 121 122 120 121 117 122 106 72 81 108 132 133 136 147 151 157 158 163 168 164 156 140 132 122 109 101 96 91 87 82 73 66 64 67 66 67 71 73 76 82 84 82 79 76
165 164 165 164 164 167 171 175 174 174 174 172 172 170 169 167 165 163 158 153 147 145 144 144 146 146 146 146 145 142 139 135 134 135 135 142 135 128 129 124 123 129 131 128 131 127 142 137 57 58 91 130 137 140 150 154 159 160 167 170 174 167 134 130 128 113 103 96 92 91 89 79 71 67 70 70 68 71 73 77 83 85 85 82 79
166 163 165 166 166 169 172 173 173 172 171 170 171 171 169 168 167 167 162 155 148 143 141 141 142 143 143 142 141 137 132 129 127 128 129 135 139 134 138 138 134 143 145 138 148 148 157 169 70 61 81 134 150 147 151 153 157 162 168 173 183 166 124 128 133 118 108 98 93 93 94 87 76 70 72 75 73 72 73 76 82 85 86 86 81
165 164 165 168 168 169 171 172 172 170 169 169 169 170 169 168 168 169 163 155 148 142 140 139 140 139 138 136 133 131 128 127 124 122 120 122 128 131 137 145 149 159 168 163 167 182 189 194 157 97 83 138 160 153 152 154 156 161 168 182 183 143 120 129 133 123 114 102 96 98 101 95 84 74 75 80 81 77 72 72 79 85 86 87 85
165 165 166 169 168 168 170 171 170 169 167 167 168 168 167 168 169 167 163 156 149 143 141 138 137 136 133 131 129 128 127 126 123 118 117 118 121 124 128 136 149 158 172 176 177 199 207 203 183 130 95 140 169 161 158 157 157 162 175 189 169 129 124 126 129 128 117 104 99 106 110 105 95 82 81 83 85 84 79 73 73 81 84 86 87
165 167 169 170 168 167 170 169 168 166 164 165 166 166 166 167 166 165 162 155 150 144 141 138 136 133 130 128 127 125 123 121 118 114 115 119 121 122 126 132 143 153 164 169 176 198 210 208 203 180 128 143 178 173 165 161 159 165 186 191 156 134 130 123 125 121 109 106 102 110 118 116 108 96 91 87 87 90 88 84 75 76 82 85 89
166 168 171 170 166 166 169 169 165 162 162 163 164 164 164 164 164 163 160 155 152 146 141 138 134 131 128 126 125 121 118 116 113 111 113 118 121 121 125 131 139 151 161 168 181 195 202 205 205 198 164 152 179 185 174 163 163 171 192 190 154 144 137 126 121 110 97 96 96 103 118 125 127 121 105 103 101 99 97 96 91 82 83 89 92
169 168 171 170 165 165 168 168 163 160 159 158 159 161 161 160 161 161 158 156 152 146 141 136 132 130 128 126 123 119 115 114 113 111 113 117 118 119 124 132 139 146 156 166 175 174 164 148 143 157 157 158 173 188 182 168 168 176 194 194 164 154 143 128 119 107 90 80 84 92 109 131 145 149 119 116 141 114 109 104 102 95 93 96 94
171 170 172 170 165 165 168 164 160 158 155 154 155 156 158 158 159 159 157 154 149 144 139 134 131 128 126 125 124 121 119 118 117 114 113 113 113 115 117 126 135 141 150 160 165 158 143 114 102 112 138 161 169 183 186 175 173 178 193 201 177 159 144 132 122 104 83 72 77 85 104 141 156 162 145 144 218 176 125 112 110 105 102 101 95
172 172 172 171 167 166 166 161 160 158 154 153 154 154 156 156 155 155 153 149 144 141 137 133 132 128 126 127 130 131 130 127 123 121 113 111 113 110 109 119 128 139 145 153 162 159 149 129 113 106 126 158 167 177 185 180 176 180 195 207 188 163 147 137 124 99 82 73 70 72 89 151 170 170 166 169 203 229 167 127 120 116 114 108 101
174 172 173 173 169 167 165 162 161 158 156 155 155 155 154 152 152 153 149 144 142 141 139 137 136 133 134 138 141 142 141 139 134 132 119 111 113 105 101 117 133 144 148 152 165 168 161 152 131 113 121 154 166 172 182 182 178 184 198 209 194 168 156 141 122 99 84 73 66 68 80 143 177 179 181 185 195 222 212 166 137 127 123 117 113
176 175 176 177 171 168 167 164 162 159 159 158 157 155 150 149 150 148 144 143 145 145 144 143 142 143 147 149 151 154 156 156 151 145 120 94 107 121 118 135 160 160 162 163 177 184 169 157 139 118 121 151 164 170 180 180 178 185 199 207 197 175 162 140 116 98 81 69 62 66 77 132 177 187 192 197 195 210 225 207 165 140 131 127 125
179 179 179 178 173 170 169 165 162 160 160 160 157 151 148 150 148 146 146 146 148 149 150 148 148 149 150 155 160 163 164 163 157 154 157 192 211 246 237 236 226 198 186 182 190 200 186 164 145 124 122 150 164 170 178 177 177 184 196 204 196 178 162 136 113 97 82 73 64 62 65 106 174 191 197 204 199 199 220 228 197 158 141 138 137
181 182 181 179 176 173 171 166 161 160 161 160 155 149 151 153 149 151 151 148 149 150 152 149 152 153 151 161 168 164 171 168 159 177 191 201 217 241 247 254 243 216 201 191 193 203 195 174 154 136 130 152 165 169 175 175 176 178 187 202 199 178 159 132 116 100 86 79 70 60 56 84 166 192 199 201 197 191 205 232 221 190 155 144 141
184 185 183 181 179 176 173 167 162 161 162 158 152 150 153 154 154 154 149 149 153 151 152 156 162 166 163 169 171 168 184 171 156 193 198 205 222 229 230 241 239 223 212 203 202 202 194 183 166 146 142 157 166 168 173 173 172 172 179 199 202 187 161 135 120 101 87 81 73 60 46 79 154 185 198 195 191 186 193 221 226 209 182 153 146
186 187 186 183 181 179 174 167 164 163 162 157 152 152 155 160 160 152 146 154 158 155 161 174 175 180 175 169 173 179 195 172 162 197 185 195 218 221 211 205 220 221 215 212 209 202 195 188 170 152 151 160 164 165 171 170 167 167 175 193 201 197 173 150 129 103 86 76 75 62 45 78 141 170 187 186 184 183 186 207 219 211 204 177 164
183 189 190 187 184 180 174 169 165 164 164 159 152 152 160 168 165 150 151 161 161 167 181 187 179 188 184 169 174 182 195 177 175 196 178 192 214 215 199 191 206 212 213 213 209 201 193 192 176 156 154 158 160 163 171 168 163 165 174 187 190 184 173 162 136 109 90 74 76 68 56 76 121 158 179 180 178 177 179 196 208 205 205 209 188
177 188 196 190 186 181 175 169 165 166 165 154 148 155 166 172 166 155 160 166 166 176 194 203 185 183 187 172 176 185 199 186 182 196 185 199 214 213 204 197 201 204 208 210 208 201 196 200 180 158 153 155 158 161 169 167 162 162 169 179 179 171 166 160 138 116 96 78 79 75 76 80 97 136 166 178 179 176 175 193 204 202 199 211 218
176 185 193 191 186 179 174 168 166 170 158 141 146 154 167 175 169 167 169 168 170 180 195 213 200 179 187 182 183 194 205 198 197 210 206 208 212 211 208 207 206 204 206 209 207 195 193 201 178 158 152 151 155 159 168 168 164 162 166 174 176 174 170 162 143 125 105 85 88 87 89 87 89 107 132 160 178 178 176 189 202 212 207 211 230
177 183 189 187 181 173 169 168 172 171 152 143 151 153 168 176 173 176 175 168 170 181 190 208 209 186 189 194 198 208 206 204 209 218 219 211 211 212 206 206 207 204 205 202 196 185 182 188 173 160 150 145 148 153 164 170 170 172 180 187 190 192 189 172 147 132 118 98 104 104 97 91 88 94 105 124 160 176 182 190 198 212 223 226 238
176 183 182 171 168 168 165 168 173 167 155 157 158 158 172 175 178 181 178 176 175 182 187 196 208 209 210 206 212 222 213 207 211 219 221 208 207 214 210 203 202 202 200 188 177 174 176 179 172 163 151 144 146 150 160 169 176 182 189 195 198 203 204 190 165 148 144 134 128 120 105 97 92 92 93 100 125 162 182 193 196 206 224 235 240
175 176 167 161 163 164 163 171 173 163 160 164 163 171 176 175 186 188 186 187 183 190 199 204 209 219 231 228 226 231 226 220 219 224 224 212 200 206 215 210 204 203 194 179 170 165 170 176 173 168 158 155 156 157 161 165 174 180 184 189 189 195 204 204 191 174 161 157 149 133 118 108 102 97 90 91 100 117 154 188 195 205 223 237 239
177 169 161 164 165 163 166 174 170 161 167 167 167 178 183 189 195 195 195 191 193 205 213 222 223 224 233 236 236 238 236 233 229 223 216 211 201 201 217 217 209 206 192 176 171 166 170 176 175 174 172 171 169 169 169 170 176 180 184 189 189 191 197 199 199 189 172 167 163 143 133 123 113 106 95 89 94 97 98 136 190 212 229 240 244
175 166 166 170 167 166 170 175 167 165 175 169 162 172 186 201 205 207 206 200 208 217 215 224 228 230 234 233 234 236 237 236 233 229 218 216 215 208 219 217 210 207 193 181 178 173 174 178 179 181 184 181 178 177 177 182 190 191 192 200 204 200 197 194 199 198 180 170 165 152 144 136 125 116 104 92 84 90 94 99 132 231 244 252 251
170 170 180 181 174 168 166 173 175 174 175 168 162 168 181 196 211 221 218 212 221 232 234 235 230 227 230 227 228 229 231 233 232 232 227 226 227 217 216 214 214 211 199 192 189 183 181 185 188 191 194 193 189 186 186 195 205 207 205 212 219 219 218 207 194 197 184 174 172 160 152 147 138 133 129 121 107 100 108 116 98 343 270 274 267
169 175 190 189 181 169 163 172 176 174 170 164 161 165 178 190 203 209 206 217 232 247 247 247 240 233 232 229 231 228 224 230 230 228 226 229 231 219 211 210 212 211 203 201 197 191 190 192 195 198 204 205 201 202 206 214 221 223 223 220 222 230 238 231 211 203 195 191 187 171 159 157 151 150 146 138 122 111 113 124 135 215 263 272 273
170 170 179 191 184 164 161 168 166 167 164 162 165 171 187 195 201 207 211 224 233 242 246 253 255 252 245 235 236 230 222 226 228 228 225 228 235 224 211 206 205 206 204 203 200 196 195 196 198 199 203 207 209 215 220 225 229 230 231 230 230 236 243 242 232 221 218 221 208 181 172 171 168 171 157 145 131 117 120 121 127 164 238 260 266
172 167 162 179 183 161 163 168 161 162 164 172 184 188 205 212 219 235 245 254 255 258 259 259 259 255 247 238 236 230 224 224 224 227 227 229 237 223 207 199 200 206 206 204 204 202 201 202 205 204 204 208 213 220 225 227 230 232 234 235 237 241 247 249 247 240 235 239 233 202 189 181 179 192 184 178 181 165 179 176 168 206 206 232 254
170 165 157 162 173 169 174 172 164 167 172 181 195 202 216 214 219 244 267 270 255 259 254 253 253 243 239 238 235 229 225 224 221 224 230 234 231 214 204 198 198 210 210 209 210 207 210 213 216 219 220 219 221 222 225 230 233 237 239 237 237 241 244 246 247 247 244 241 238 229 216 202 201 205 205 207 208 210 221 221 246 254 228 241 264
166 163 160 158 163 171 180 175 169 172 174 179 192 205 206 202 218 179 175 158 145 248 248 245 247 240 242 241 233 226 225 227 223 224 232 237 229 215 211 205 204 214 214 213 214 213 218 221 224 230 231 231 232 228 226 233 240 244 248 246 245 247 249 250 248 243 241 240 237 236 236 231 230 231 230 233 233 233 231 221 233 248 246 254 266
167 166 167 162 162 174 182 177 169 170 175 179 190 204 193 188 213 211 228 207 147 224 255 254 246 235 241 242 232 222 223 228 225 225 229 229 224 216 218 219 220 223 220 219 218 217 220 225 232 237 237 236 237 237 233 239 247 250 251 251 249 248 251 253 251 242 232 232 236 237 239 239 240 243 244 247 251 254 247 232 226 232 245 254 255
170 169 169 166 168 179 182 177 170 170 180 186 193 207 200 192 204 213 230 224 172 142 149 304 263 228 226 231 226 213 217 226 222 221 225 225 222 216 219 228 231 228 228 235 230 225 226 231 237 240 241 239 237 238 238 245 250 246 245 249 252 252 255 256 254 255 243 232 238 242 244 246 245 247 249 250 253 257 254 245 232 224 232 242 243
172 172 169 170 177 181 182 182 178 178 184 187 189 192 189 191 199 202 203 201 180 152 155 11 233 211 205 204 204 201 210 217 210 214 221 224 226 224 222 228 235 233 235 242 237 232 233 236 239 239 239 239 238 238 242 251 248 241 244 249 252 251 255 262 267 280 291 266 253 253 255 257 256 255 255 255 255 256 253 248 242 233 229 231 232
176 174 172 176 184 183 181 183 182 183 186 182 177 171 169 176 186 193 195 189 182 305 298 302 177 193 195 192 193 196 204 199 192 200 207 215 227 235 234 233 237 235 232 234 234 236 238 241 242 240 237 234 236 240 244 245 237 236 241 239 239 240 245 258 270 283 293 290 276 269 266 264 263 261 259 258 257 259 256 250 247 240 232 230 229
177 175 177 183 187 183 181 180 178 181 184 181 171 162 162 169 180 188 187 174 182 299 332 352 167 180 185 186 187 186 190 188 184 188 195 201 213 223 227 231 234 233 232 233 235 240 242 243 242 240 239 235 235 238 238 234 227 227 229 225 230 240 251 260 267 276 277 282 288 282 276 270 265 262 260 260 259 262 261 255 254 251 245 244 239
177 178 185 189 186 183 181 178 176 177 181 180 169 161 167 177 184 186 183 169 174 217 333 16 150 172 178 182 186 182 182 186 187 192 196 198 201 211 223 234 241 241 240 238 237 241 241 243 245 244 244 240 236 236 233 230 227 223 222 229 241 251 261 264 275 296 286 302 326 330 315 293 275 263 259 264 267 268 266 262 262 262 261 261 255
181 186 191 193 189 186 183 178 175 175 178 177 169 169 175 181 187 185 186 183 168 180 182 129 151 172 183 187 200 203 205 210 210 213 215 215 218 223 235 241 241 234 227 229 234 238 239 243 249 252 252 249 245 242 237 229 226 223 218 224 244 260 266 268 322 328 303 309 329 349 349 329 297 269 261 267 275 279 282 281 279 277 275 271 264
188 192 193 195 196 190 184 179 176 174 178 176 171 178 181 179 188 190 194 203 192 188 191 174 170 177 186 193 209 220 228 231 228 229 225 225 231 230 238 241 231 222 213 217 224 226 231 236 240 244 248 251 247 243 240 226 221 225 221 217 247 277 277 294 329 326 313 313 317 332 345 351 344 288 265 267 275 285 290 295 299 302 300 287 275
194 195 197 203 205 195 187 183 181 179 182 180 176 184 189 188 195 196 200 213 213 208 213 200 191 192 198 205 213 216 223 220 205 196 189 195 208 206 210 227 220 216 208 199 197 198 210 219 222 226 233 240 237 241 247 236 230 234 230 229 270 293 316 316 316 314 313 311 310 316 317 329 341 306 277 275 281 293 297 301 305 308 304 290 280
200 201 204 210 209 201 193 189 188 188 191 189 183 186 195 202 209 216 220 230 233 218 187 186 192 196 202 203 200 196 201 203 189 175 167 170 180 181 176 174 186 197 188 169 163 171 185 189 194 205 218 227 228 240 256 250 245 250 248 250 258 267 289 299 304 308 310 311 319 324 318 317 319 313 305 294 288 294 301 306 306 301 296 286 281
205 207 211 211 210 207 202 197 196 196 198 199 192 189 198 206 213 225 231 233 246 223 176 169 175 182 189 190 190 193 197 204 206 191 169 163 168 164 138 122 134 147 146 132 118 105 102 116 132 148 174 212 224 232 244 235 232 242 244 240 248 268 291 299 307 311 320 345 2 0 351 343 334 323 315 308 304 303 300 301 300 295 292 287 283
207 213 214 210 209 212 212 206 202 203 203 203 199 194 200 208 216 227 230 230 233 208 177 173 172 171 179 183 188 194 192 192 195 185 170 165 163 152 117 116 124 127 125 111 76 67 85 91 85 75 71 70 74 253 267 225 209 223 221 222 239 280 320 331 333 333 359 11 2 352 353 7 20 359 331 319 309 300 295 293 292 290 289 289 283
209 215 215 212 212 216 218 212 207 208 206 204 203 197 199 207 215 225 227 227 220 198 183 178 172 171 175 178 178 181 177 164 159 160 160 165 161 121 97 118 127 123 119 95 49 64 87 90 78 66 66 71 68 57 49 73 101 99 110 122 94 12 0 356 358 359 356 349 345 346 352 14 35 36 21 8 347 314 298 287 283 287 290 287 274
213 216 216 215 216 218 220 215 210 211 210 207 205 200 200 205 212 221 226 228 218 200 193 183 177 182 179 176 171 168 168 158 151 153 154 156 144 104 86 101 116 112 104 95 90 97 96 96 91 76 75 77 76 73 74 88 97 94 97 96 34 352 337 336 337 328 327 332 340 349 357 16 38 48 52 54 56 51 31 0 14 26 339 285 268